Location: Brahman Valley
(40.6513°N, 111.8855°W)
Time: 08:23:34
(UTC+00:00)

Tiros 1 despin weight - Pass Details

Date: 14 May 2021
Orbit: 594 x 641 km, 48.2° (Epoch: 22 June)

Event Time Altitude Azimuth Distance (km) Brightness Sun altitude
Rises 01:26:30 0° 185° (S) 2,892 ? 11.6°
Reaches altitude 10° 01:29:56 10° 159° (SSE) 2,001 ? 10.9°
Maximum altitude 01:32:05 13° 130° (SE) 1,804 ? 10.5°
Drops below altitude 10° 01:34:15 10° 102° (ESE) 2,017 ? 10.1°
Sets 01:37:45 0° 76° (ENE) 2,937 ? 9.5°
